Theta_e
319 321 319 320 320 318 318 317 317 318 319 319 317 317 321 322 320 325 335 336 332 335 337 337 336 337 335 335 335 334 334 334 335 335 336 335 335 336 336 336 337 337 337 338 340 339 340 342 344 345 346 348 350 352 353 353 354 354 352 353 355 356 354 353 352 353 355 357 356 354 353 353 354 350 347 346 346 344 345 346 346 345 343 344 346 348 350
317 318 318 319 318 317 318 317 318 318 317 317 318 319 322 324 325 332 335 335 335 336 336 335 336 335 334 335 335 334 333 334 334 334 335 334 334 334 335 335 335 335 336 338 339 338 338 338 339 342 344 345 348 350 352 353 353 352 350 350 355 358 356 353 352 352 353 354 355 356 353 352 356 356 353 350 347 345 345 346 345 346 344 342 344 346 348
315 317 317 318 317 316 316 316 318 318 317 317 318 320 322 324 328 333 335 333 334 335 335 335 334 333 334 335 334 335 334 333 333 333 333 334 334 334 334 335 334 335 336 337 337 338 337 336 336 338 341 343 345 347 348 351 353 352 350 351 357 359 356 352 352 352 353 353 354 355 355 355 357 358 357 355 353 350 347 346 346 346 345 342 342 344 346
312 314 316 315 316 315 312 313 315 316 315 315 316 319 321 322 324 329 330 329 332 334 335 334 334 334 333 334 335 335 334 333 332 332 333 333 333 333 334 334 335 334 335 336 336 337 336 336 336 336 338 340 342 345 346 347 349 349 350 352 355 356 357 355 354 355 355 354 354 354 355 358 359 359 357 356 357 356 354 349 346 347 347 345 345 343 342
310 313 315 314 312 311 310 311 314 315 316 316 316 318 320 322 323 324 327 330 333 334 333 333 332 333 334 333 334 334 334 333 332 332 332 333 333 332 332 333 333 334 335 335 336 336 336 335 335 336 336 337 339 342 343 344 346 347 347 350 352 352 355 355 354 355 356 356 356 355 355 356 356 354 354 356 356 354 353 355 353 350 348 347 347 347 344
310 312 314 313 311 309 310 314 316 317 317 316 316 316 319 323 326 325 328 333 334 333 332 332 331 332 333 333 331 332 333 332 330 331 331 331 332 331 331 331 332 333 333 334 334 335 336 335 334 334 335 335 337 338 341 342 344 344 344 345 346 348 351 352 351 351 353 355 356 355 354 354 353 352 354 356 355 354 353 353 353 353 353 351 350 350 349
312 313 314 312 311 311 314 318 318 317 317 317 317 318 319 323 327 328 330 332 333 332 331 330 330 331 331 331 330 330 330 330 330 329 329 329 330 330 329 330 331 331 330 331 332 333 335 335 335 334 334 335 336 337 338 339 341 343 343 343 343 344 346 347 347 347 348 351 352 353 353 354 354 353 353 354 355 355 354 354 354 353 353 355 355 352 352
315 314 313 314 315 316 317 318 318 317 318 319 319 319 321 323 326 329 330 331 331 331 329 329 330 330 329 328 329 329 328 328 329 327 327 327 327 327 328 328 330 330 329 328 329 331 333 334 334 333 335 335 336 337 337 336 338 342 342 341 341 342 343 344 344 345 346 348 349 351 352 352 351 352 353 354 354 355 354 354 353 353 353 354 355 357 356
315 311 312 315 316 317 318 318 318 317 318 318 318 317 321 324 325 326 330 330 329 328 327 327 328 327 326 327 328 328 327 326 326 326 325 326 325 325 325 324 326 328 326 326 327 328 330 331 330 331 334 335 335 337 337 336 337 339 340 340 340 340 341 341 342 344 346 346 347 348 350 350 350 351 352 353 354 354 354 354 354 354 353 353 354 357 358
314 311 312 313 313 314 317 319 319 318 318 320 318 316 319 323 321 322 327 329 328 327 326 326 327 326 325 326 327 326 325 324 324 324 324 324 324 323 322 321 322 325 325 324 324 326 328 329 328 328 332 334 334 336 336 335 336 338 338 338 338 338 339 339 340 342 343 344 346 348 348 350 350 349 350 353 354 355 354 354 354 355 355 354 354 355 356
316 314 313 312 313 317 320 321 321 320 319 321 318 313 315 322 322 321 326 327 326 326 326 325 325 322 322 326 327 325 324 324 322 323 322 323 322 321 320 319 321 323 323 322 322 324 325 326 326 326 329 332 333 334 334 334 336 337 336 336 336 337 338 338 338 340 342 344 345 347 348 349 350 349 349 350 352 354 355 354 354 355 356 356 357 356 356
316 316 313 312 316 321 323 321 320 318 317 318 315 311 314 322 323 322 325 326 324 324 325 324 322 321 323 326 325 322 323 323 321 321 321 321 321 320 319 320 321 321 321 321 321 321 323 324 325 324 326 329 330 332 333 333 333 335 334 334 335 336 337 337 337 339 341 343 345 345 347 348 349 349 349 349 350 353 355 356 356 356 356 357 358 358 358
312 313 313 313 319 324 323 320 319 317 314 314 313 315 321 325 323 322 323 324 323 325 324 321 321 323 324 324 321 320 319 320 320 319 320 319 320 320 319 320 320 320 321 321 321 321 322 322 322 322 325 327 328 330 332 332 332 332 333 333 334 335 335 335 336 337 339 341 342 344 345 347 347 346 346 348 351 353 354 356 356 356 356 356 357 358 359
311 312 311 311 318 326 324 320 319 316 314 315 319 324 327 324 322 322 323 323 323 323 323 320 321 322 321 318 318 318 317 318 318 318 318 318 319 319 318 319 320 320 321 322 322 322 322 321 321 322 324 325 327 329 330 330 331 332 332 333 333 333 334 334 335 336 337 338 340 342 344 347 346 342 340 340 346 352 355 356 356 356 356 356 357 358 358
313 313 311 312 318 325 324 320 320 319 318 322 326 327 325 323 323 323 322 322 322 321 321 320 320 320 318 318 317 318 317 318 318 318 318 319 318 318 317 318 319 320 321 321 321 322 322 322 322 323 323 325 326 327 328 328 329 332 333 332 332 333 333 334 334 335 335 336 337 339 343 346 347 346 343 341 345 351 353 354 354 356 356 356 356 357 358
315 313 314 317 322 324 322 321 323 323 323 325 327 324 324 323 322 321 322 322 321 320 320 319 318 318 318 317 317 318 317 317 317 318 318 318 318 318 317 318 318 319 320 320 321 321 321 322 323 324 324 325 325 326 326 326 328 331 332 331 332 332 332 332 333 333 334 335 335 337 341 343 344 346 347 347 348 350 350 351 352 353 352 352 353 355 355
319 317 319 322 323 324 322 321 323 324 324 324 323 323 324 323 321 321 321 321 320 319 319 319 318 317 316 316 317 317 316 316 317 318 318 318 318 318 318 318 319 319 319 319 319 320 321 322 323 323 324 324 325 325 325 326 327 329 329 330 331 332 331 331 332 332 332 333 334 336 338 339 341 343 346 348 349 347 346 347 348 349 349 349 350 350 351
320 320 321 321 321 322 322 321 321 323 323 323 322 321 321 321 320 320 320 320 320 319 318 318 317 316 316 316 316 316 316 316 317 317 318 318 318 318 318 319 319 318 318 319 319 320 321 321 321 322 323 323 324 325 325 326 326 326 326 328 330 331 331 331 331 331 331 332 333 334 334 335 339 339 341 345 348 346 345 344 345 346 347 347 348 349 350
319 320 320 321 321 322 322 320 320 322 322 322 320 318 318 318 318 318 318 319 319 319 318 318 318 317 316 316 316 316 317 317 317 318 318 318 318 318 319 318 318 318 318 319 320 320 320 320 320 321 321 322 322 323 324 325 325 325 326 327 329 330 330 329 329 330 331 332 332 333 334 334 335 335 336 340 345 347 347 346 345 346 346 346 347 348 349
318 319 320 321 320 321 321 321 320 320 321 322 320 318 318 318 318 318 318 318 318 317 316 316 317 316 316 316 316 317 316 317 318 318 317 317 318 318 318 318 318 318 318 319 319 319 319 319 319 320 320 321 321 322 323 324 324 325 326 326 327 329 329 329 329 329 330 331 332 332 333 333 332 333 334 337 339 341 341 342 342 343 343 343 344 344 345
320 319 320 320 320 319 320 320 319 320 320 321 320 319 318 318 318 318 318 317 317 316 316 317 317 317 317 317 317 316 317 317 318 317 317 318 317 317 317 317 317 317 318 318 318 318 318 318 318 319 319 320 320 321 321 322 323 325 326 326 328 328 328 327 327 328 329 330 330 331 331 332 332 333 333 334 335 337 337 337 337 337 337 338 339 339 340
321 321 321 323 322 321 320 320 320 320 320 319 320 320 319 319 319 318 318 318 317 317 316 317 317 317 317 318 317 317 317 317 317 317 317 317 316 316 316 316 316 316 317 317 318 318 317 318 317 318 318 319 319 320 321 321 322 324 325 326 326 327 327 327 327 328 328 329 329 330 330 331 332 333 333 333 334 335 335 334 333 334 336 336 335 335 336
322 322 323 323 322 322 321 320 320 320 319 319 320 320 320 320 320 319 318 318 318 317 317 316 316 316 317 317 317 317 317 316 316 317 316 316 316 316 316 315 316 316 316 317 317 317 317 318 317 318 318 318 318 319 320 320 321 323 324 326 326 326 326 325 326 326 327 327 328 329 330 331 332 333 334 333 333 334 333 333 333 333 334 333 332 334 336
323 323 324 323 323 322 322 321 320 321 320 319 319 319 319 319 319 319 319 319 318 317 317 317 317 316 316 316 316 316 316 316 315 315 315 315 315 315 315 315 315 315 316 316 317 317 317 317 318 318 317 317 318 319 319 319 320 321 322 324 325 325 325 325 325 325 325 326 327 328 328 329 330 332 332 332 332 332 333 333 332 331 330 329 332 336 337
323 323 323 322 321 321 321 320 320 320 320 320 319 319 319 319 318 318 318 319 319 318 317 317 316 316 316 315 315 314 314 315 315 314 314 314 314 314 314 315 314 315 315 316 316 317 318 318 319 319 319 319 319 319 319 319 319 320 321 322 323 325 326 326 326 326 325 326 326 327 327 328 329 330 331 331 331 332 332 332 332 331 330 331 333 335 336
322 321 321 320 320 320 319 319 320 320 320 320 321 321 320 319 318 318 318 318 318 318 317 317 316 316 315 315 314 314 313 313 313 313 313 314 314 314 314 314 314 315 315 316 316 317 318 319 320 320 320 319 318 318 318 319 319 320 321 322 323 325 326 326 326 326 326 325 325 326 326 327 327 328 329 329 330 330 331 331 331 331 331 332 333 334 337
320 320 320 320 320 320 319 319 320 320 320 320 320 321 321 318 318 318 318 318 318 317 317 317 316 316 315 314 313 313 313 313 313 313 313 313 313 313 313 314 314 315 315 315 316 317 319 320 320 320 320 320 319 319 319 319 319 319 320 322 323 325 325 326 326 326 325 325 324 325 326 326 327 327 327 327 328 328 329 330 331 331 333 334 334 336 337
320 320 320 320 320 320 320 319 320 320 320 320 320 320 319 318 318 318 318 318 318 318 317 317 316 315 316 315 313 313 312 312 313 313 313 313 313 313 313 314 314 314 314 314 315 317 318 319 319 320 320 321 321 321 320 320 320 320 320 321 323 324 324 325 325 325 324 324 325 325 325 325 325 325 325 325 325 326 327 329 330 332 333 333 334 335 335
320 319 319 319 319 320 320 319 319 319 319 319 320 319 319 318 318 318 318 317 317 318 318 317 315 315 315 314 313 314 313 312 312 313 312 312 312 313 313 314 314 314 314 314 315 316 316 316 317 318 319 319 320 320 320 321 322 321 321 322 323 323 323 324 324 324 323 323 323 323 323 322 323 323 323 323 325 326 327 329 330 331 331 332 333 333 334
319 319 318 318 318 318 318 318 318 318 318 319 319 319 319 318 317 318 318 317 317 318 317 316 316 315 315 314 314 313 313 312 312 312 312 312 312 312 313 314 314 314 314 314 314 315 315 315 316 317 317 317 317 318 318 320 320 321 322 322 322 322 322 322 321 322 322 322 322 321 321 321 322 322 323 323 325 326 327 328 329 329 330 331 332 332 333
317 317 317 317 317 317 318 318 317 317 318 319 319 319 318 318 318 318 317 317 318 318 317 316 316 315 314 314 313 312 312 312 312 312 312 311 312 312 313 313 313 313 313 313 313 313 314 314 315 315 315 315 315 316 316 317 318 319 320 320 320 321 320 320 320 320 321 321 321 321 321 322 322 322 323 323 324 325 326 327 328 328 329 330 331 332 333
315 315 315 316 316 316 316 316 316 316 317 318 318 319 319 319 319 318 317 317 317 318 317 316 316 315 314 313 312 312 312 313 312 312 311 311 311 311 311 312 312 312 313 313 312 313 313 314 314 313 313 313 313 313 314 315 316 317 318 318 319 319 319 319 319 319 319 320 320 321 321 321 321 322 322 322 323 324 325 326 326 327 328 328 329 330 332
314 314 315 315 315 315 315 315 316 316 316 317 318 319 319 320 320 319 319 318 318 317 317 316 315 314 313 312 312 313 312 312 312 312 311 311 311 311 310 310 310 311 311 312 311 312 312 312 312 312 312 311 312 312 313 314 315 315 316 316 316 317 317 318 318 318 319 319 319 320 320 321 321 322 322 322 323 323 323 324 325 325 326 327 327 328 328
313 313 313 314 314 314 314 314 315 315 315 317 318 318 318 319 319 317 317 318 317 317 316 316 315 313 313 312 312 312 312 312 312 311 311 311 310 310 309 309 309 310 310 310 310 311 311 310 309 310 310 310 310 311 312 313 313 313 314 314 314 314 315 316 316 317 317 318 318 319 319 319 320 321 321 322 322 323 323 323 323 323 323 324 324 325 326
312 312 312 313 313 313 313 313 314 314 315 316 318 318 318 318 317 316 316 316 316 315 314 314 313 312 312 312 312 312 312 311 311 310 309 310 309 309 308 308 308 309 310 310 309 309 308 308 308 309 309 309 309 310 311 311 312 312 312 312 312 313 314 314 314 315 315 316 317 317 318 318 319 319 320 321 321 321 322 322 322 322 322 322 322 324 324
312 312 312 312 313 313 313 313 313 314 314 316 318 318 317 317 317 316 316 315 313 312 312 312 312 312 312 312 311 311 310 309 309 308 308 308 308 308 307 307 307 308 309 308 308 307 307 306 307 308 308 307 308 309 309 310 310 310 310 311 311 311 312 312 313 313 314 315 316 316 317 317 318 318 319 320 320 320 320 320 320 320 321 321 321 321 320
311 311 312 312 312 312 312 312 313 314 315 316 317 318 317 318 317 316 315 314 312 311 310 311 311 312 311 311 310 309 308 308 307 307 307 307 307 307 307 307 307 308 307 307 306 306 305 306 307 306 307 307 307 307 308 308 308 308 308 309 309 310 310 311 311 312 312 313 314 315 315 316 316 317 317 318 319 319 319 319 319 319 319 319 318 317 317
309 309 310 310 310 311 311 311 312 314 316 317 317 318 318 318 316 314 313 312 311 309 309 310 311 311 310 309 308 308 307 307 306 306 306 306 307 307 306 306 306 306 306 305 305 304 305 305 305 306 306 306 306 306 306 306 306 306 307 307 307 308 309 309 309 310 311 312 312 313 314 314 315 315 316 317 317 317 318 318 318 317 317 316 315 314 314
308 308 309 309 309 310 311 311 311 314 316 317 316 317 318 317 315 313 313 312 311 309 310 310 310 309 308 308 307 307 307 306 305 306 305 305 306 306 305 305 305 304 304 304 304 303 304 304 305 305 305 305 305 304 304 305 305 305 305 305 305 306 307 307 308 309 310 310 311 312 313 313 314 314 315 316 316 316 316 316 316 315 315 314 313 313 312
308 308 308 308 309 310 310 310 311 314 316 316 316 317 317 315 314 313 313 312 310 310 310 309 308 308 308 307 307 306 306 305 305 305 305 305 305 305 305 305 304 303 303 303 302 302 303 304 304 304 304 303 303 303 303 303 303 303 303 304 304 305 306 307 308 308 309 310 310 311 312 313 313 313 314 314 314 314 314 314 313 313 313 312 311 310 310
308 308 308 308 308 309 310 310 312 313 314 315 315 315 314 313 312 312 312 311 310 309 309 308 308 307 307 306 306 306 305 305 305 305 304 305 305 305 304 304 303 302 302 302 302 302 303 303 303 302 302 302 301 302 302 302 302 302 303 304 304 305 306 306 307 308 308 309 310 310 311 311 311 312 312 312 312 312 312 312 311 311 310 309 309 308 308
308 308 308 308 308 308 309 310 312 313 313 313 314 313 312 311 311 311 310 309 309 308 308 308 308 307 306 306 306 306 305 305 305 304 304 305 305 304 304 303 302 302 302 302 301 302 302 302 301 301 300 300 300 300 301 301 301 302 303 303 304 304 305 305 306 306 307 308 308 309 309 309 310 310 310 310 310 310 310 309 309 309 308 307 307 306 306
308 308 308 308 308 307 309 310 312 312 312 312 312 312 311 311 310 310 309 308 308 308 308 308 307 307 307 306 306 306 306 305 305 304 304 304 304 303 303 302 302 301 301 301 301 301 301 301 300 300 299 299 299 299 300 300 301 302 302 302 303 303 304 304 305 306 306 306 307 308 308 308 309 309 308 309 308 308 308 308 308 307 306 306 305 304 304
308 308 308 308 307 307 309 311 311 312 311 310 309 309 309 309 308 308 307 307 308 308 308 308 307 307 307 307 306 306 306 306 305 304 303 303 304 303 302 302 301 301 301 301 301 301 300 300 299 299 299 299 299 299 300 300 300 301 301 301 301 302 302 303 304 304 304 304 305 306 306 307 307 307 307 307 307 306 306 306 306 305 305 304 303 303 303
308 307 307 307 307 307 309 311 311 310 310 309 309 308 308 308 308 308 308 308 308 309 308 308 307 307 307 307 307 306 305 305 304 303 303 303 303 302 302 301 301 301 301 301 301 301 300 300 299 299 298 298 299 299 299 299 299 299 300 300 300 300 301 301 302 302 302 303 303 304 305 305 305 305 305 305 305 305 305 304 304 303 303 302 302 302 302
309 307 307 307 307 307 308 310 311 311 310 310 309 309 309 308 309 309 309 308 308 308 308 307 307 307 307 306 306 306 305 305 304 303 302 302 302 302 302 302 301 301 301 301 301 300 300 300 299 298 298 299 299 298 298 298 298 298 299 298 299 299 299 299 300 300 300 301 302 303 303 303 303 303 303 303 303 304 303 303 303 302 301 301 300 300 300
308 307 306 307 307 307 308 310 310 310 309 310 310 310 309 309 309 309 309 308 308 308 308 307 307 306 306 306 306 305 305 305 304 303 302 302 302 301 302 302 302 301 301 301 301 300 300 299 299 298 298 298 298 298 298 297 298 298 298 298 297 297 297 298 298 298 298 299 300 301 300 301 301 301 301 301 301 302 302 302 301 301 300 299 299 299 298
308 307 307 307 307 307 309 310 310 308 309 310 311 310 310 309 309 309 308 308 307 307 307 307 306 306 305 305 305 305 304 304 304 303 303 302 302 302 302 302 302 301 301 301 301 300 299 299 299 299 298 298 298 298 297 297 297 297 297 297 297 297 296 296 297 297 297 297 298 299 299 299 299 299 299 299 300 300 300 300 300 299 299 298 298 297 297
308 307 306 306 307 307 309 311 310 309 309 310 311 310 309 309 309 308 308 308 307 307 307 306 306 305 305 305 304 304 304 303 303 303 302 302 302 302 302 302 302 301 301 301 301 300 300 299 299 299 298 298 298 298 297 297 297 297 297 297 296 296 295 295 295 295 296 296 297 297 297 297 297 297 298 298 298 298 298 298 298 297 297 297 297 297 296
308 306 306 307 309 310 310 311 310 309 308 309 309 309 308 309 308 308 308 307 307 307 306 305 305 306 305 305 304 304 304 303 303 303 302 302 302 302 302 302 301 302 301 301 301 301 300 300 300 299 299 298 298 298 298 297 297 297 296 296 296 296 295 295 294 295 295 295 295 295 295 295 295 295 295 295 296 296 296 296 296 295 295 295 296 295 295
309 308 308 309 310 310 309 309 309 308 308 309 309 309 309 309 309 309 308 307 307 306 306 305 305 305 304 304 304 304 303 303 303 303 302 302 302 302 302 302 301 301 301 301 301 301 300 300 300 299 299 298 298 298 298 297 297 296 296 296 296 295 295 294 294 294 294 294 293 293 293 293 293 293 293 293 293 294 294 294 294 294 294 294 294 294 294
308 308 308 309 309 308 308 308 308 307 308 309 309 308 309 309 309 308 308 307 307 306 306 306 305 304 304 304 303 303 303 303 302 303 302 302 302 302 302 302 301 301 301 301 301 301 300 300 300 300 299 298 298 298 298 297 297 296 296 295 295 295 295 294 294 293 293 293 293 292 292 292 292 292 292 291 291 292 292 292 292 292 293 293 293 293 293
Wind_Speed
3 3 6 5 7 7 1 5 3 3 5 5 8 9 5 5 3 5 9 10 12 13 13 14 13 11 10 8 8 8 8 7 8 8 10 11 12 12 12 11 12 12 11 12 14 17 18 17 16 15 15 15 15 13 10 9 7 6 7 8 8 5 4 10 14 14 12 15 21 24 23 23 22 24 26 25 25 25 25 25 26 25 24 24 25 26 26
2 3 4 5 6 6 5 3 2 1 4 5 7 7 4 4 4 11 12 10 11 11 11 13 13 12 11 8 6 7 8 8 7 8 9 10 11 12 12 11 11 11 12 13 15 16 17 18 17 14 14 15 14 13 11 10 10 7 4 6 9 8 6 5 7 9 11 14 16 22 25 24 22 22 24 25 24 25 25 25 25 26 26 25 24 25 27
4 5 4 4 6 4 3 5 3 2 5 5 3 4 2 1 5 11 13 12 10 9 11 12 11 10 10 7 6 6 6 6 6 8 9 9 10 10 11 11 11 11 12 13 15 16 16 17 16 15 15 15 15 14 12 11 12 11 7 7 9 8 5 4 6 6 9 13 15 16 19 21 21 21 22 23 24 24 24 25 24 24 26 26 25 23 24
6 7 8 8 8 6 7 10 7 5 7 6 4 4 3 3 6 9 12 9 8 10 13 14 13 11 10 8 7 6 5 4 5 7 7 8 9 9 10 11 10 10 11 13 14 15 15 15 15 16 15 14 14 14 14 13 13 14 12 10 10 10 7 4 6 7 8 11 13 13 14 16 17 18 19 21 22 21 21 22 24 23 23 25 26 25 24
7 8 7 6 6 6 7 10 11 10 8 7 7 7 5 3 4 6 9 8 7 10 12 11 11 13 12 9 8 5 4 3 4 7 7 6 7 9 9 10 10 11 11 13 14 14 14 14 15 15 14 14 14 12 12 12 13 14 15 14 14 14 12 9 8 7 7 9 11 11 13 15 15 15 17 17 16 18 25 24 20 21 23 24 24 25 26
7 7 7 3 5 6 4 3 7 12 12 10 10 8 6 4 3 2 5 12 13 11 11 10 9 10 12 10 8 8 5 2 4 7 8 6 7 8 9 9 10 11 11 12 13 13 13 13 14 14 13 13 13 13 13 13 13 14 16 17 17 17 16 15 15 14 11 9 10 12 13 14 15 15 18 18 14 15 21 26 24 21 19 22 23 25 26
6 3 6 5 5 3 2 7 3 2 5 6 6 3 4 6 6 5 7 14 15 11 8 8 7 7 11 10 9 9 8 4 2 3 6 7 7 7 8 8 9 10 12 12 13 12 12 13 13 14 13 12 12 13 14 14 14 13 14 16 17 17 17 17 18 18 17 14 14 14 14 13 14 13 16 18 17 19 21 20 20 21 20 20 23 25 27
5 3 5 5 1 3 6 7 7 6 5 2 3 4 3 4 6 7 9 10 11 9 9 10 9 7 7 6 8 10 8 6 2 3 4 8 8 7 7 8 9 10 11 12 12 12 12 12 13 13 13 12 12 12 13 14 14 14 13 14 16 16 16 16 17 16 16 16 16 16 15 12 13 12 10 15 19 20 21 20 21 22 22 22 23 23 25
5 6 5 5 4 4 5 5 4 2 2 2 3 3 3 4 4 6 10 10 9 9 9 10 10 7 3 2 6 10 10 9 5 4 6 7 5 6 7 8 8 10 12 12 12 11 10 11 13 13 11 11 11 11 12 13 13 14 14 14 15 16 16 16 16 14 14 15 15 15 15 11 9 9 8 10 15 18 20 20 19 21 24 25 24 22 23
4 5 6 6 6 5 5 7 7 4 3 4 2 4 4 8 7 6 10 12 10 8 7 8 9 6 3 3 5 8 10 11 9 4 3 3 4 6 7 8 8 10 12 12 12 11 10 11 13 13 11 9 10 11 11 12 12 12 13 14 14 15 15 16 17 14 13 14 13 13 13 9 8 9 10 9 10 14 18 19 19 21 24 24 24 23 23
3 4 6 6 4 1 4 9 10 7 6 6 4 4 5 7 7 6 8 10 9 8 8 8 7 3 4 4 3 4 7 10 9 5 3 4 6 7 7 8 10 12 12 13 13 12 11 12 13 14 11 9 10 10 10 11 10 10 11 12 13 13 13 14 15 15 13 12 11 10 11 9 8 9 11 10 9 11 14 16 16 18 20 21 20 22 22
4 4 5 4 1 3 7 9 8 7 6 5 5 5 4 8 8 6 7 9 7 7 8 7 5 3 1 4 5 6 7 9 8 6 4 4 6 7 8 9 12 12 12 12 12 12 12 13 14 14 11 10 10 10 10 10 10 10 10 10 10 11 12 12 13 14 13 12 12 12 12 12 11 11 12 11 10 11 12 13 12 12 15 17 18 18 19
6 6 6 3 2 5 7 8 7 6 5 4 4 2 3 8 8 4 6 9 8 7 7 5 3 3 5 5 5 5 6 7 7 6 5 4 5 6 8 10 11 10 9 10 11 12 13 14 14 13 12 11 11 11 10 10 10 10 10 9 9 9 10 11 11 12 12 13 14 14 13 13 14 14 13 11 11 12 12 12 11 11 12 14 15 15 16
6 5 6 5 2 4 4 7 7 4 1 2 2 3 4 6 8 6 5 8 8 6 5 3 3 6 6 5 5 6 5 5 5 5 5 5 6 6 7 8 8 8 9 10 11 12 12 14 14 13 13 14 13 12 11 11 11 11 10 9 9 9 9 9 9 10 12 13 14 13 12 13 14 13 12 11 11 14 14 13 12 12 11 11 12 13 15
5 5 6 6 2 2 4 6 5 2 1 2 4 6 6 7 8 7 5 7 7 4 4 3 3 4 4 3 4 4 3 3 3 4 5 6 5 6 7 8 9 10 10 10 11 12 12 14 14 14 14 14 14 13 13 13 13 11 10 10 10 9 8 9 9 10 10 12 13 13 12 12 12 13 12 12 12 14 14 13 12 11 9 9 10 11 13
4 5 4 1 2 4 5 4 3 3 4 5 5 5 6 6 6 5 4 5 5 3 3 3 2 2 1 1 1 2 1 1 2 3 5 5 6 7 7 9 10 11 11 11 12 12 13 13 14 14 15 14 14 14 14 14 13 12 11 12 11 9 9 9 10 10 10 11 13 14 13 12 12 12 12 11 11 12 12 13 13 11 9 8 8 9 12
4 2 2 3 2 4 4 4 5 7 7 6 4 4 5 4 4 4 4 5 6 4 2 3 2 1 1 1 0 1 0 1 2 4 5 6 6 7 8 9 10 10 11 12 13 13 13 13 14 14 15 15 15 15 15 15 14 14 14 13 11 10 11 11 10 10 11 12 12 11 11 12 13 13 11 8 7 9 11 12 12 12 12 11 10 10 11
4 3 2 3 3 3 4 4 6 8 7 5 4 2 2 2 3 4 3 3 6 6 4 2 2 2 1 0 1 1 2 3 4 5 6 6 7 8 8 9 9 10 11 12 12 13 13 14 14 14 14 15 16 17 17 16 15 16 16 15 13 12 12 11 10 10 11 12 11 11 12 11 11 12 12 9 7 6 7 9 11 12 12 13 14 12 12
4 3 3 4 3 3 4 4 5 7 6 5 4 2 1 2 2 4 4 4 4 5 5 4 3 3 2 2 2 1 2 3 4 5 6 6 7 8 8 9 9 10 10 11 12 14 14 14 14 15 15 16 17 18 18 17 16 17 17 16 14 13 11 11 11 11 10 11 12 12 11 10 9 11 13 11 8 6 6 8 11 12 12 13 14 14 13
6 3 2 2 1 2 3 3 3 5 6 6 4 3 3 3 2 3 4 4 4 4 5 5 4 3 3 3 2 1 1 2 3 5 6 7 8 9 9 10 10 10 10 11 13 14 15 16 15 15 16 16 17 18 19 18 18 18 17 16 15 13 12 12 11 10 10 11 12 11 11 11 11 11 11 11 11 10 10 11 13 13 14 15 14 13 14
7 6 3 2 4 5 4 4 4 2 4 6 6 5 5 5 4 4 3 3 4 4 4 6 6 5 4 2 2 3 2 2 3 4 6 7 9 10 10 10 10 10 11 12 13 15 16 17 17 17 17 17 17 17 18 19 19 18 18 17 16 15 13 12 11 11 10 10 10 11 12 13 13 12 12 12 13 13 12 13 14 14 16 18 17 16 17
5 2 2 3 2 3 2 2 3 4 4 4 6 8 10 9 9 9 8 6 5 5 3 3 4 5 4 2 2 3 3 3 3 4 5 7 9 10 10 11 11 12 12 13 14 15 16 18 18 19 18 18 17 17 17 18 18 18 18 17 17 16 14 12 11 11 10 10 10 10 12 13 14 15 14 14 14 15 15 16 15 12 13 17 18 18 20
3 3 6 6 3 2 3 3 4 4 5 6 8 7 9 11 10 9 8 8 9 8 5 4 4 4 4 4 3 4 5 4 4 5 6 7 8 10 11 12 12 13 13 14 15 16 17 18 19 19 20 19 18 18 17 17 18 19 18 18 18 17 15 13 12 10 10 11 11 11 11 13 14 15 15 14 14 16 17 17 15 13 14 17 17 16 18
4 5 5 4 2 2 4 6 6 6 5 6 9 9 7 8 8 7 5 6 7 7 6 7 8 7 6 6 5 5 5 5 6 6 6 7 8 9 11 11 12 13 13 14 16 17 18 20 21 21 21 21 19 19 18 18 18 19 20 20 19 19 17 15 13 11 11 11 12 11 11 13 14 14 14 15 15 15 15 15 16 17 19 19 16 15 16
3 4 5 5 4 4 5 6 7 7 7 8 8 9 8 8 8 8 6 5 6 7 7 8 9 8 7 7 8 7 6 6 7 6 6 8 9 9 10 11 12 13 14 15 17 18 19 21 23 22 22 21 20 19 19 19 19 19 20 21 20 19 18 16 13 12 11 12 12 12 12 13 14 13 13 13 14 15 15 16 17 19 18 17 16 16 16
3 4 5 6 7 6 6 7 7 6 6 7 8 10 11 10 9 9 9 9 9 10 9 9 11 10 9 8 8 8 7 7 7 7 8 9 9 9 10 11 11 13 14 16 17 17 19 22 23 22 20 20 20 19 18 18 19 19 19 20 20 19 19 17 15 12 11 11 14 14 13 13 13 12 12 14 15 15 16 17 17 18 17 16 16 16 15
3 3 4 6 7 6 6 7 6 6 5 6 8 12 15 14 11 10 11 11 10 10 11 11 12 11 9 6 4 5 7 8 8 9 9 9 9 10 10 11 12 13 14 15 16 17 18 19 19 20 19 19 18 18 17 18 19 19 19 19 18 18 19 18 16 14 12 13 14 14 13 12 12 12 13 15 17 17 17 17 18 18 17 16 15 14 14
4 3 4 5 5 6 6 7 7 7 5 5 8 12 15 14 12 11 12 11 9 10 11 12 11 9 8 6 4 6 8 8 8 9 9 9 9 10 10 11 12 12 13 14 15 15 16 16 17 17 17 18 18 18 19 19 18 18 18 17 17 17 16 15 14 14 14 13 12 12 12 13 13 13 14 16 18 19 19 18 17 17 16 16 15 15 16
3 3 3 3 4 6 8 9 9 8 8 9 10 11 13 13 12 12 12 11 11 10 11 11 10 7 6 8 8 8 7 7 8 9 9 9 9 10 10 10 11 12 13 13 13 14 15 16 17 16 16 16 18 19 19 19 18 16 16 16 16 16 14 12 13 14 14 13 13 14 15 16 16 15 15 16 17 19 19 18 17 16 16 17 16 17 16
5 4 4 5 6 8 9 9 9 9 10 10 10 10 11 12 12 12 12 12 11 10 11 11 11 9 9 11 11 7 4 5 7 9 9 8 9 9 9 10 10 11 11 12 13 14 15 15 15 15 15 16 17 18 18 17 17 16 15 14 14 13 12 13 14 15 15 14 15 16 17 17 16 15 15 15 16 17 18 19 18 16 16 15 16 16 14
6 6 6 7 7 8 8 7 8 8 8 9 10 10 11 13 13 13 11 10 10 10 12 13 13 12 12 12 8 4 3 5 7 7 8 9 8 8 8 9 9 10 11 12 13 13 14 14 14 14 15 16 16 17 17 16 16 15 14 13 13 13 13 14 14 13 13 14 15 16 16 16 15 15 14 15 16 17 17 18 18 16 14 13 14 14 12
7 7 8 7 6 7 7 7 7 7 7 8 9 10 11 11 11 11 11 11 12 13 13 13 12 12 11 9 7 4 4 6 6 6 7 9 9 8 8 8 9 11 12 12 13 12 12 13 13 13 15 16 17 17 17 16 15 15 14 14 14 14 13 13 13 13 13 14 15 15 16 16 16 15 15 14 15 16 16 17 17 16 15 14 14 13 12
7 7 7 7 6 8 8 8 8 9 8 7 6 7 9 9 6 5 8 9 9 12 12 10 10 12 12 9 6 5 5 6 7 6 7 7 7 7 7 8 10 11 11 12 12 11 10 11 13 14 15 17 17 18 17 15 14 14 14 14 14 15 14 14 14 14 14 15 15 16 17 17 16 16 16 16 16 17 17 17 17 16 16 16 15 14 14
7 7 8 9 9 9 9 9 8 8 8 6 5 5 7 6 2 1 3 2 3 6 8 10 11 11 9 8 6 6 6 6 6 5 6 6 6 6 6 8 10 11 11 12 11 9 9 11 13 15 16 17 18 17 16 15 14 14 14 14 14 14 14 15 15 15 15 15 16 18 18 18 17 16 16 16 17 16 16 16 17 17 17 17 17 16 14
10 10 11 12 12 11 11 10 9 9 9 7 5 5 6 5 4 5 4 4 6 4 2 9 10 7 6 6 5 6 5 4 3 4 5 6 7 6 6 7 9 11 11 11 9 8 10 11 13 16 18 17 17 16 15 15 15 15 15 15 15 14 14 14 15 15 16 16 17 18 19 18 18 16 16 16 17 16 16 16 16 16 17 18 18 17 16
13 12 11 12 14 14 14 13 12 11 10 8 6 6 6 7 8 10 10 10 10 8 4 0 3 5 4 4 5 4 3 3 4 4 5 6 7 7 6 7 8 10 10 9 8 9 11 11 14 17 18 16 15 14 14 15 16 16 16 16 15 15 15 15 14 15 16 16 17 18 19 18 18 18 17 17 17 17 17 17 17 16 17 18 17 16 15
14 14 13 13 14 15 15 15 14 13 11 10 8 7 8 9 11 12 12 11 12 12 9 5 2 3 4 4 4 3 3 3 3 4 5 5 6 6 7 7 8 8 8 8 9 11 12 13 15 17 16 15 14 14 14 15 16 17 16 16 16 16 16 16 16 16 16 17 17 19 19 18 18 18 18 17 16 16 15 15 16 15 15 15 15 14 13
17 17 17 16 16 16 16 16 16 14 11 10 10 8 9 11 13 15 14 12 12 14 12 8 7 7 6 5 5 5 3 1 1 3 4 4 5 6 6 6 6 6 7 8 10 11 12 14 16 16 15 14 14 14 14 15 17 17 17 16 17 17 18 18 18 17 17 17 18 18 18 17 18 18 18 17 16 14 14 14 14 15 15 14 14 13 13
17 17 18 17 16 15 15 17 16 13 11 10 10 8 9 13 15 15 14 13 13 14 14 13 11 9 7 6 6 5 3 1 1 2 3 4 4 5 4 3 5 6 7 9 10 11 12 14 15 14 13 13 14 14 15 16 18 18 17 17 17 18 18 18 18 18 18 18 18 18 18 18 18 18 18 17 15 14 13 14 15 16 16 15 14 14 13
14 15 16 16 15 15 16 16 14 12 11 10 8 7 11 15 15 12 11 12 14 14 14 13 11 9 8 7 6 5 4 3 2 1 2 3 3 5 3 2 5 7 8 9 11 12 12 12 12 11 11 13 14 15 16 18 19 19 18 16 16 17 17 17 17 17 17 17 17 17 18 18 18 17 16 15 13 12 11 12 13 14 14 14 13 13 13
14 16 17 16 15 15 16 14 11 9 8 6 7 12 16 18 16 12 11 12 13 12 12 12 10 9 8 6 5 4 3 2 1 1 2 3 3 5 4 4 7 8 9 11 12 12 11 11 11 11 12 15 16 17 19 21 20 18 17 16 16 16 17 17 17 18 18 17 17 17 18 18 17 15 14 13 13 12 11 10 11 12 12 13 13 13 13
17 18 18 16 16 16 15 12 8 5 5 8 12 16 19 20 18 15 13 13 11 10 10 9 7 7 7 7 5 4 4 2 0 1 1 1 1 3 4 5 7 8 9 11 12 11 10 10 10 12 15 17 18 19 21 20 18 16 15 15 15 15 16 17 17 17 18 18 18 17 17 16 15 14 13 13 13 12 11 10 10 11 12 12 11 11 12
18 19 17 15 15 16 13 7 6 8 11 14 16 17 19 19 18 17 15 13 11 9 9 9 8 7 6 6 5 4 3 2 0 2 0 5 8 5 3 5 6 7 9 10 10 9 9 9 11 14 17 17 18 19 20 17 15 14 15 15 15 16 16 16 16 16 17 17 17 17 16 14 13 13 14 13 12 13 12 12 11 11 10 10 10 10 10
18 19 16 14 16 16 10 6 9 10 12 15 17 18 19 19 18 18 18 15 13 12 11 10 9 8 6 5 5 4 3 2 1 2 2 2 6 6 5 4 6 7 9 9 9 8 8 9 12 15 17 17 17 18 17 14 13 14 15 15 16 16 16 16 16 16 17 18 18 16 15 13 13 14 14 13 13 13 14 13 10 8 8 8 9 10 10
16 17 17 15 15 14 8 9 13 14 13 16 17 18 19 19 19 20 21 18 16 15 13 11 10 10 8 5 5 4 3 2 2 1 3 2 1 2 4 4 6 7 8 8 8 7 6 9 12 15 16 17 17 16 14 13 14 15 15 15 16 16 16 17 18 18 18 19 18 16 15 15 14 13 13 13 12 12 11 9 8 7 6 6 6 6 7
13 15 16 15 11 9 8 10 14 13 14 16 16 17 20 21 20 19 19 17 15 14 13 11 9 7 6 6 5 5 4 4 4 3 2 1 1 2 2 3 5 7 7 7 7 7 7 9 12 15 17 17 16 14 13 13 14 14 14 15 16 16 16 17 18 18 19 19 17 16 16 16 15 13 12 12 12 10 9 8 7 6 5 4 4 4 4
9 11 12 10 6 5 7 12 14 12 11 13 14 14 17 20 18 16 15 15 13 12 11 10 9 7 6 5 5 3 2 3 5 3 2 2 3 3 2 3 4 6 8 7 6 6 7 9 12 14 16 16 15 13 13 13 13 13 14 15 15 15 16 17 17 17 19 19 18 16 16 15 13 12 12 12 11 10 8 7 6 6 5 4 4 4 4
6 6 5 2 4 5 8 12 14 11 10 11 11 12 14 16 17 16 15 14 13 12 11 10 10 9 6 4 4 3 1 1 2 2 2 3 3 3 4 4 3 5 8 8 6 6 7 9 11 13 15 15 14 13 13 14 13 13 13 13 14 14 16 17 17 17 17 18 17 15 15 13 12 11 10 10 10 9 8 6 5 5 4 4 3 3 3
3 4 3 1 6 11 13 12 11 8 6 5 7 10 13 14 15 15 15 13 12 12 11 10 10 10 7 4 3 4 3 2 1 2 3 3 3 3 4 4 4 5 7 8 8 7 7 8 9 12 14 13 13 12 13 13 13 13 12 13 13 13 14 16 16 16 15 15 15 14 14 13 12 11 10 10 9 8 7 6 5 5 4 3 3 2 2
1 3 5 5 7 9 10 9 9 9 7 5 6 11 14 15 13 13 13 12 11 10 9 9 10 10 8 6 5 5 4 2 1 1 1 2 2 3 4 5 5 6 7 8 8 8 7 8 9 11 12 13 13 12 12 13 13 13 12 13 12 12 12 14 15 15 14 14 13 13 13 13 12 11 11 10 10 9 8 7 6 6 5 4 3 3 2
11 10 9 9 11 14 15 13 11 10 9 5 5 8 10 11 10 11 11 11 10 8 8 8 9 8 7 6 5 5 4 3 2 1 0 1 2 3 3 4 4 5 6 7 7 8 8 8 8 9 10 12 12 12 11 12 12 12 12 12 12 12 11 12 13 14 14 14 13 12 12 12 12 13 12 12 11 10 9 8 7 7 7 6 4 3 3
18 18 18 18 18 18 18 15 11 7 4 2 1 5 7 8 9 10 9 8 8 8 7 6 7 7 6 5 5 4 3 2 1 0 1 1 2 3 4 4 5 5 6 6 6 7 7 7 7 7 8 10 11 11 11 11 11 12 12 12 12 11 11 11 12 12 13 13 12 12 12 12 12 12 13 12 12 11 10 9 8 8 8 8 7 5 5
Wind_Direction
230 319 321 317 330 335 125 133 111 218 244 276 268 263 299 5 28 138 151 152 144 144 148 141 128 117 113 112 114 114 106 97 89 85 86 82 78 75 71 66 61 57 55 51 50 51 50 50 48 38 31 42 57 60 51 42 39 28 23 32 33 13 286 255 246 245 251 243 234 239 258 272 261 241 232 229 224 220 215 210 212 218 221 218 209 205 209
238 259 290 291 306 355 49 102 91 5 276 265 258 269 316 20 104 145 152 147 138 142 146 140 127 113 102 90 101 120 112 103 104 94 78 69 69 71 68 65 62 61 58 52 47 51 56 53 45 39 39 43 49 56 55 47 35 10 351 24 34 36 18 310 254 247 265 265 249 238 239 252 266 259 246 241 235 227 220 215 214 214 219 225 221 210 206
270 227 226 265 279 307 303 257 228 236 271 270 264 274 310 77 148 150 144 143 146 136 124 123 122 119 116 106 97 98 94 96 99 91 80 69 61 64 67 62 57 57 56 52 46 44 52 55 49 41 40 41 44 43 36 38 35 19 9 26 30 35 31 328 282 275 280 273 266 258 246 247 261 267 259 253 251 244 230 220 218 216 214 219 226 223 213
263 225 208 228 246 254 262 260 245 219 232 240 233 227 211 198 196 168 149 150 154 140 133 131 128 131 133 127 112 86 57 58 79 74 70 66 55 53 61 60 53 50 48 47 44 40 43 51 52 48 43 42 46 45 34 27 24 19 22 31 26 24 28 354 312 311 314 301 288 279 269 266 275 283 274 261 262 272 266 240 224 219 217 216 221 227 228
250 217 197 223 243 241 247 249 237 221 218 230 234 221 201 214 245 205 169 149 132 135 143 142 138 141 142 142 145 122 65 53 98 93 74 59 51 48 48 54 55 48 42 42 39 35 36 42 48 50 47 44 40 36 36 32 24 18 20 27 27 21 21 21 11 359 346 334 326 314 298 292 300 306 297 282 275 291 302 292 263 237 227 222 221 224 231
249 194 156 189 239 236 255 269 227 214 206 213 226 219 183 128 27 354 139 137 142 153 157 158 163 154 138 135 145 140 126 129 129 111 93 67 54 53 43 44 52 46 39 40 36 29 30 33 39 40 40 45 37 23 27 34 30 25 20 19 23 21 19 23 22 17 11 359 351 346 333 320 315 302 293 294 280 271 291 304 301 285 260 240 232 227 229
265 166 147 203 237 220 69 45 39 178 181 203 217 192 152 131 97 78 118 137 151 166 157 142 143 138 134 138 146 148 150 154 149 125 114 93 62 53 46 40 49 46 36 35 30 24 24 28 32 29 26 35 37 27 26 26 23 29 28 22 21 19 18 19 17 14 12 7 2 358 351 348 345 321 288 279 269 256 260 268 272 276 273 260 250 238 231
265 236 188 204 210 96 96 76 57 61 72 95 134 118 112 114 112 121 130 136 147 151 134 121 122 136 152 151 140 142 148 142 124 339 61 83 62 47 45 36 47 49 34 28 26 18 15 22 28 24 18 22 30 31 29 22 16 22 28 25 20 16 16 15 12 13 11 9 8 4 356 351 355 348 304 271 263 259 256 251 247 249 253 257 259 253 241
246 256 230 184 145 140 146 129 119 134 125 128 179 202 168 146 148 145 143 152 161 154 140 128 120 122 132 126 138 148 146 133 115 22 31 63 56 44 39 23 37 49 31 17 16 10 8 20 23 13 7 16 25 29 26 20 18 21 23 24 18 11 9 7 5 8 9 7 9 7 1 352 339 338 321 283 268 262 258 257 257 257 255 256 261 266 262
234 255 254 220 202 209 188 150 135 130 102 101 159 246 199 172 187 178 159 169 174 159 142 122 108 110 156 188 179 164 143 129 128 121 79 75 49 37 25 359 10 33 22 6 0 355 358 18 16 358 354 9 21 27 25 17 17 21 22 22 16 9 7 2 356 356 2 7 8 1 356 349 326 319 316 297 280 272 265 259 259 261 259 256 257 261 266
250 252 256 243 238 291 101 114 112 103 92 97 133 224 205 165 160 158 160 170 170 155 143 129 122 160 204 172 118 105 111 114 119 116 80 45 25 12 357 350 5 15 5 351 345 342 350 6 0 345 346 6 13 17 18 10 10 18 21 19 12 7 6 1 351 347 351 0 1 349 339 335 328 322 315 304 293 286 277 270 269 268 263 259 257 255 257
251 242 248 252 245 86 104 110 108 109 114 130 181 210 182 143 141 153 160 157 150 134 126 129 150 195 180 103 88 71 77 90 92 77 48 19 6 352 344 358 9 2 345 337 334 336 346 352 343 334 343 1 3 3 5 360 0 10 14 13 11 7 5 0 350 344 345 349 347 340 333 328 326 326 324 320 313 305 292 280 277 274 265 263 265 265 265
238 233 244 256 91 102 124 130 119 117 136 180 204 198 118 124 131 143 156 149 139 125 126 146 164 115 89 90 92 73 63 68 68 60 47 23 10 358 352 359 358 343 335 338 336 335 338 335 329 332 345 352 351 351 353 350 349 354 359 2 4 3 0 358 351 344 342 341 339 336 334 332 329 328 328 331 326 310 294 279 275 274 270 269 271 272 275
243 236 240 236 166 123 142 131 108 100 199 215 147 104 93 107 109 100 118 130 126 126 141 148 89 86 91 86 76 64 49 48 48 42 39 31 18 5 352 348 347 342 345 346 338 333 331 329 331 338 341 340 341 341 340 340 339 339 342 346 349 351 352 352 351 346 339 333 331 330 328 326 327 327 323 322 318 306 292 280 273 272 273 272 271 272 274
241 239 244 248 205 145 156 135 106 38 316 115 107 104 97 92 92 85 89 115 130 146 151 130 86 84 85 58 58 64 44 34 35 31 37 36 16 357 345 344 352 356 350 342 335 332 331 331 335 338 334 331 331 329 328 330 330 328 332 337 335 335 342 348 348 342 333 328 326 323 317 313 312 316 319 319 314 306 300 293 282 274 278 281 275 273 273
243 239 240 259 121 131 137 134 112 71 85 109 115 112 111 110 112 108 99 113 132 144 129 114 99 80 69 19 46 98 77 20 21 32 34 24 5 355 350 351 356 353 342 336 334 330 330 332 333 331 328 325 321 317 317 321 322 323 327 329 324 323 334 341 340 334 329 324 319 315 319 322 313 306 310 317 317 313 309 304 295 285 286 296 292 282 277
288 301 65 80 117 145 133 117 113 108 109 111 99 101 126 139 131 128 135 139 141 140 117 104 113 233 238 231 176 77 352 334 19 23 13 3 0 358 354 353 354 346 334 330 329 326 328 331 329 326 324 319 315 315 317 319 320 319 318 317 316 322 329 329 329 329 325 320 316 315 320 324 316 306 298 292 301 318 323 317 309 298 288 290 297 297 291
280 277 178 152 160 160 142 119 112 114 120 122 110 113 142 127 113 122 129 136 143 146 146 151 186 236 259 265 286 333 346 346 352 355 353 355 355 352 349 348 345 336 328 325 324 324 326 328 327 324 322 318 317 319 320 318 314 311 311 313 316 320 323 322 323 326 323 318 319 319 314 311 314 317 314 296 275 293 319 324 321 316 307 300 297 297 295
245 230 182 161 162 165 169 166 141 136 144 148 148 157 117 79 110 135 125 120 133 143 156 174 193 216 234 252 269 336 0 328 324 335 342 345 343 340 339 336 331 327 324 322 323 323 322 324 324 321 319 318 316 316 316 314 311 311 311 312 311 310 312 315 316 318 320 319 315 312 311 314 317 318 317 315 308 309 322 327 326 326 325 320 311 303 296
235 231 146 118 149 188 203 213 183 159 161 160 151 132 104 98 108 118 125 147 164 177 187 184 187 212 229 244 271 281 289 301 320 330 330 331 332 329 326 325 324 323 321 321 321 319 318 319 319 316 315 314 312 312 312 311 310 309 306 302 300 300 304 310 312 310 311 312 310 311 317 321 318 311 310 313 316 317 319 320 323 326 323 318 316 312 305
239 245 245 235 226 214 215 237 253 231 184 176 176 173 162 155 158 161 172 191 206 216 200 173 175 201 223 237 252 259 279 311 313 310 316 321 320 318 318 320 322 322 320 319 316 314 313 314 314 312 311 310 310 310 310 309 307 306 303 300 297 295 296 301 305 306 306 305 309 316 320 317 313 310 305 299 295 294 296 298 304 311 309 305 305 306 303
232 235 16 1 294 242 233 260 280 287 275 240 222 202 185 183 192 192 188 194 216 231 228 190 191 208 215 217 248 276 287 289 291 301 311 313 311 312 318 321 322 321 319 316 312 311 311 311 310 310 309 309 309 309 308 308 306 302 300 299 295 293 294 297 299 304 310 313 314 313 310 308 306 304 301 296 290 286 288 293 298 299 295 295 300 304 302
287 33 47 37 11 312 320 331 312 299 297 295 288 259 205 195 210 214 203 205 213 213 209 217 229 232 226 222 241 268 279 292 306 302 298 302 309 317 320 320 318 315 314 313 312 312 313 312 311 310 309 308 308 307 306 306 304 302 299 296 291 288 287 287 291 300 310 314 313 306 302 302 302 300 301 301 296 291 290 294 298 299 295 296 298 300 301
329 5 26 33 23 316 312 318 315 306 294 286 290 285 254 227 234 241 236 229 225 216 213 222 228 229 228 230 239 254 274 289 289 288 296 308 312 312 311 308 307 309 314 319 320 318 317 315 311 309 307 305 305 305 303 302 301 300 298 296 294 292 288 287 292 300 304 306 305 304 304 302 297 297 301 302 301 299 297 295 296 299 302 303 301 296 296
310 332 344 339 317 298 303 303 295 288 283 274 267 267 269 267 257 250 241 220 210 214 226 237 239 236 236 243 249 253 262 273 278 290 307 303 295 294 295 298 306 314 320 324 323 321 318 314 310 308 306 305 305 304 303 302 300 297 295 294 294 293 292 291 291 294 299 304 302 297 295 293 293 295 300 300 301 303 301 298 297 298 301 301 297 296 299
301 306 308 299 286 276 273 272 271 279 298 308 299 280 269 264 262 260 251 230 212 205 211 227 239 240 237 243 255 261 266 275 284 292 290 284 285 291 296 304 313 318 320 321 321 319 316 313 311 308 305 304 307 306 302 300 299 297 294 293 293 294 294 292 289 286 288 291 288 283 282 288 295 300 302 302 303 303 301 300 299 299 300 297 293 294 298
267 268 277 280 277 271 262 264 279 301 325 337 320 294 274 261 257 260 255 241 219 198 198 215 232 242 248 252 259 266 269 271 275 276 274 280 290 297 304 313 316 314 317 319 317 315 317 318 317 314 312 315 318 315 308 302 298 294 291 290 290 291 292 292 290 285 279 279 282 286 292 299 301 301 303 306 305 302 299 296 295 295 296 295 295 297 298
253 253 262 270 281 293 295 290 289 288 281 272 277 282 278 267 251 243 243 236 211 191 198 211 220 239 272 283 250 238 252 263 269 274 279 288 296 299 307 314 313 313 316 315 312 316 324 327 325 323 325 331 335 334 327 320 309 298 292 290 290 290 290 292 292 288 287 291 300 310 317 316 307 299 298 300 298 294 290 286 284 288 293 296 298 298 294
303 321 319 305 298 298 296 291 285 278 268 256 252 261 271 267 250 238 235 227 206 193 200 206 204 217 270 281 261 247 251 260 270 278 285 293 297 299 305 312 313 313 312 310 314 325 331 328 324 325 330 337 341 340 338 333 326 314 301 295 294 294 295 298 300 300 303 309 313 314 313 309 301 293 289 288 287 285 283 281 281 285 292 295 295 293 289
315 322 318 302 289 285 287 290 289 285 280 272 258 251 257 259 251 243 236 225 216 212 206 198 195 201 219 241 259 275 284 274 277 283 287 295 302 305 308 313 314 311 310 313 319 325 327 326 325 327 331 335 337 337 337 335 334 330 319 307 300 297 297 302 306 305 305 305 304 301 299 294 288 285 284 284 285 284 283 283 283 283 285 287 287 288 287
299 298 291 285 283 286 292 299 302 300 298 290 274 258 253 252 249 244 236 219 210 214 209 199 198 201 208 223 246 276 292 281 285 289 289 293 303 312 315 317 313 307 309 315 317 318 322 325 326 328 333 335 334 335 334 330 330 333 332 324 316 309 305 307 309 305 301 299 298 295 292 288 286 286 285 285 286 286 286 287 287 286 288 290 290 292 296
303 299 294 293 298 299 300 304 306 308 308 297 279 263 255 252 251 249 244 224 207 210 214 207 201 204 210 216 218 215 232 258 270 281 288 290 295 303 311 316 314 308 307 311 314 316 321 324 327 334 340 340 336 332 329 326 325 328 330 329 325 321 317 315 314 309 305 302 299 293 290 288 287 286 284 284 284 284 286 289 291 293 295 293 291 295 301
302 302 303 309 312 311 311 312 309 309 309 299 283 271 263 258 259 276 272 248 209 200 207 206 202 205 206 200 193 200 227 249 257 267 280 288 295 307 318 321 315 308 306 309 312 316 326 331 331 333 338 338 331 322 318 319 322 324 326 327 326 324 322 320 318 315 309 302 297 293 292 290 289 287 287 285 284 284 285 286 288 292 293 292 294 297 296
296 300 305 307 303 302 305 306 306 309 306 293 282 277 267 255 235 3 317 304 130 157 203 219 216 205 186 169 179 212 229 241 257 273 285 294 304 317 327 324 310 302 302 304 304 314 334 340 334 333 334 330 321 312 314 322 329 330 330 329 325 322 318 317 318 317 311 305 302 301 299 297 294 291 289 287 286 287 289 289 288 289 290 290 293 293 289
292 290 292 294 293 295 298 298 298 303 306 300 283 263 253 231 180 155 152 125 98 84 256 238 218 185 148 154 190 216 228 242 274 294 297 299 305 312 319 316 308 305 305 304 306 325 340 336 333 336 335 324 313 310 317 326 330 330 329 326 322 318 313 310 311 310 305 300 299 296 295 294 293 291 290 290 290 289 289 289 289 289 287 286 287 289 291
290 286 285 288 290 292 294 294 292 294 298 295 273 244 233 219 195 175 155 135 122 108 85 110 151 128 126 169 196 208 226 247 270 287 291 294 302 310 312 307 306 309 309 307 320 340 339 327 325 332 331 320 312 314 320 324 324 323 321 319 316 310 306 304 304 303 300 297 294 291 291 292 294 293 290 289 288 286 284 285 286 284 283 284 288 293 299
285 285 285 284 285 287 290 291 291 291 290 287 274 247 224 208 189 165 144 133 132 127 112 90 98 140 157 173 190 214 233 240 265 289 297 300 305 308 309 309 316 321 318 319 333 341 333 323 324 328 324 317 314 315 318 321 322 320 318 317 314 308 304 302 300 298 297 295 294 295 296 295 293 290 289 288 288 286 285 285 286 286 286 288 289 293 298
289 288 285 281 281 284 286 286 285 283 279 278 275 250 214 184 158 144 141 140 135 132 137 159 186 182 170 170 187 205 212 210 289 292 300 313 318 315 316 330 351 352 337 330 335 334 326 323 327 327 322 318 319 319 318 321 324 322 319 317 314 309 304 300 296 294 293 292 292 294 295 293 290 288 287 289 290 289 289 289 290 290 290 288 284 284 288
287 286 284 282 283 285 286 286 286 282 273 272 267 240 193 163 148 145 151 156 156 158 167 179 182 172 168 182 193 187 172 156 240 289 309 328 329 320 323 17 36 11 344 335 334 330 324 325 328 329 330 331 328 323 321 323 324 322 317 313 310 306 301 297 294 292 290 290 290 289 288 287 287 286 287 287 288 289 291 293 291 290 289 286 282 281 285
284 283 283 285 287 285 282 283 284 280 275 273 256 208 169 152 147 146 149 158 170 178 178 172 167 164 169 185 192 181 168 175 195 271 322 331 319 306 306 10 21 0 350 345 337 328 326 329 329 331 340 341 332 325 323 324 323 320 316 311 308 305 302 299 299 297 294 293 292 290 289 289 288 288 289 291 291 293 296 298 295 293 292 291 287 286 287
279 280 280 281 281 279 279 282 283 278 269 244 190 164 150 143 141 144 150 161 175 180 170 163 166 171 171 174 178 170 163 165 174 336 333 331 322 310 314 352 6 358 355 350 338 327 329 335 334 335 342 340 331 325 325 323 320 318 315 312 310 308 306 306 304 302 301 300 298 296 295 294 292 292 294 294 294 295 297 299 298 296 294 294 292 289 287
276 276 277 276 275 275 277 278 268 238 191 153 138 135 136 139 143 146 151 158 168 169 156 142 139 150 160 164 166 162 155 153 156 328 328 112 54 339 334 351 3 1 358 352 342 335 339 345 340 337 337 333 328 325 325 323 320 318 318 317 315 313 312 311 308 305 303 302 300 298 297 297 296 299 301 299 295 295 295 295 293 290 287 288 291 291 290
277 272 270 269 269 270 270 254 210 184 161 141 128 122 125 132 135 136 138 144 153 157 147 129 121 135 152 159 162 166 163 159 249 316 87 134 131 113 42 1 359 3 2 355 348 346 349 350 343 337 334 331 329 329 329 328 326 326 325 323 320 318 316 315 314 313 312 309 305 302 302 304 305 306 306 302 298 295 293 291 291 290 287 287 289 290 289
278 273 269 265 263 262 252 192 173 176 158 141 136 134 132 134 139 146 154 163 170 170 162 151 149 158 166 163 163 169 166 156 204 325 355 121 135 117 80 29 359 0 2 358 355 354 350 346 343 341 339 338 338 338 338 338 338 336 332 328 325 324 323 322 321 321 322 321 316 312 312 314 314 311 308 304 299 297 295 294 296 300 301 298 295 293 291
275 271 268 259 255 257 242 183 177 181 166 153 155 157 155 157 165 171 174 178 178 171 164 159 160 164 167 161 156 161 164 157 140 50 11 343 324 49 46 19 356 357 360 354 352 354 354 352 353 353 350 348 348 348 349 349 345 340 337 334 331 329 329 329 327 327 328 327 324 320 319 317 314 311 310 307 304 302 301 301 303 306 307 305 304 304 301
268 264 262 253 245 250 236 196 182 177 168 167 173 175 171 170 174 175 172 171 168 162 159 159 156 152 150 148 153 169 179 163 133 92 58 59 64 40 28 12 4 3 359 348 344 349 360 5 5 0 356 354 354 356 355 351 347 344 343 341 338 335 334 333 331 331 331 330 326 323 324 323 319 315 314 312 310 306 301 296 295 296 298 301 303 300 296
266 256 254 241 218 217 208 184 170 170 180 181 178 175 172 168 164 161 163 164 160 154 153 150 138 126 129 144 158 178 192 155 134 119 77 67 76 61 31 16 7 357 351 349 349 352 2 9 9 3 359 358 0 360 356 351 348 347 347 346 345 342 339 335 332 332 334 333 329 327 329 331 328 324 321 318 314 312 310 308 307 308 309 310 306 299 292
289 276 270 220 156 182 191 166 153 166 197 192 169 161 164 161 155 154 156 156 152 151 151 145 132 124 127 140 145 138 101 88 119 106 55 33 33 21 10 9 357 342 344 352 0 5 11 15 12 5 2 2 3 1 357 352 348 347 347 349 349 349 346 342 338 336 338 340 340 340 341 342 341 340 337 332 324 319 318 321 325 325 321 318 318 312 306
293 284 287 192 166 182 185 166 146 155 193 190 153 150 155 155 153 153 153 153 155 157 153 143 132 128 130 133 130 119 106 80 72 78 59 33 10 351 348 352 351 344 344 350 357 3 9 12 7 3 3 4 3 360 357 352 348 346 347 349 350 351 352 350 347 344 344 347 350 354 357 359 359 358 355 350 345 340 335 335 343 347 341 337 341 340 338
82 173 188 186 168 159 152 134 117 118 129 147 171 173 165 156 152 151 151 154 161 163 153 144 140 140 139 138 133 127 129 139 139 100 68 22 355 343 336 341 346 344 341 347 355 356 355 357 360 0 1 2 2 360 358 355 351 348 348 348 349 351 354 353 351 352 354 355 356 1 6 9 10 8 3 0 1 360 356 355 358 358 353 349 353 4 13
56 77 102 114 105 97 96 97 103 109 114 128 178 183 166 149 144 148 153 157 161 163 156 148 145 146 145 141 135 136 148 168 173 141 2 319 336 344 341 338 340 338 338 346 354 352 346 349 355 357 356 358 1 1 359 359 357 354 351 349 349 353 358 357 353 352 353 355 357 1 7 12 15 15 15 13 10 7 7 11 15 14 11 6 5 13 29
57 61 69 77 81 82 83 88 96 100 85 60 176 181 168 151 142 144 150 154 155 158 160 154 147 146 149 150 148 149 156 168 180 207 280 299 318 328 332 332 335 338 340 344 345 343 341 344 350 352 354 358 1 1 359 359 0 359 357 355 354 358 4 6 2 356 354 355 357 0 4 9 13 16 20 22 19 16 17 20 22 27 34 37 38 46 64